Regional Weather Roundup
Issued by NWS

Home | Current Version | Previous Version | Text Only | Print | Product List | Glossary On
Versions: 1 2 3 4 5 6 7 8 9 10 11 12 13 14 15 16 17 18 19 20 21 22 23 24 25 26 27 28 29 30 31 32 33 34 35 36 37 38 39 40 41 42 43 44 45 46 47 48 49 50
000
ASPQ40 PGUM 201212
RWRPQ
WEATHER ROUNDUP FOR THE MARIANAS AND MICRONESIA
NATIONAL WEATHER SERVICE TIYAN GU
1000 PM CHST SAT SEP 20 2014

GUZ001>004-201300-
MARIANA ISLANDS-

CITY           SKY/WX    TMP DP  RH WIND       PRES   REMARKS
GUAM AIRPORT   PTCLDY    82  77  83 E7        29.85S HX  91
ANDERSEN AFB   PTCLDY    81  75  83 E10       29.85
ROTA AIRPORT   NOT AVBL
TINIAN AP      NOT AVBL
SAIPAN AP      CLEAR     81  79  94 NE5       29.85R

$$

PMZ161-201300-
REPUBLIC OF PALAU-

CITY           SKY/WX    TMP DP  RH WIND       PRES   REMARKS
KOROR AP       NOT AVBL
KOROR WSO      CLOUDY    79  72  78 N12       29.86R

$$

PMZ171>174-201300-
FEDERATED STATES OF MICRONESIA-

CITY           SKY/WX    TMP DP  RH WIND       PRES   REMARKS
YAP AIRPORT    MOCLDY    82  77  83 N8        29.81R HX  91
CHUUK AP       CLOUDY    81  79  94 S7        29.82R
POHNPEI AP     NOT AVBL
POHNPEI WSO    PTCLDY    77  75  94 SE5       29.85F
KOSRAE AP      NOT AVBL

$$

PMZ181-201300-
REPUBLIC OF THE MARSHALL ISLANDS-

CITY           SKY/WX    TMP DP  RH WIND       PRES   REMARKS
KWAJALEIN AP   DRIZZLE   81  73  78 S7        29.82S
MAJURO AP      NOT AVBL
MAJURO WSO     MOCLDY    82  77  83 S10       29.79  HX  91

$$




USA.gov is the U.S. government's official web portal to all federal, state and local government web resources and services.